Date,TemperatureHighF,TemperatureAvgF,TemperatureLowF,DewpointHighF,DewpointAvgF,DewpointLowF,HumidityHigh,HumidityAvg,HumidityLow,PressureMaxIn,PressureMinIn,WindSpeedMaxMPH,WindSpeedAvgMPH,GustSpeedMaxMPH,PrecipitationSumIn
2013-1-1,82.2,67.0,56.1,59.1,56.1,52.6,89,70,44,29.80,29.64,7,2,9,0.00
2013-1-2,81.9,67.0,61.0,67.1,61.7,57.7,91,84,61,29.67,29.59,6,1,6,0.00
2013-1-3,85.3,69.6,60.1,68.8,62.4,57.9,93,80,47,29.73,29.62,5,1,12,0.02
2013-1-4,68.5,62.5,59.0,59.9,57.6,55.6,91,84,72,29.86,29.72,5,2,8,0.02
2013-1-5,79.2,67.5,60.1,63.6,59.2,55.9,88,76,56,29.87,29.76,7,2,8,0.00
2013-1-6,83.8,70.8,64.0,68.2,64.1,60.3,93,81,58,29.78,29.67,6,2,8,0.00
2013-1-7,71.6,67.1,62.8,64.2,60.0,56.5,88,78,63,29.78,29.69,8,3,9,0.01
2013-1-8,87.1,72.7,62.2,67.9,63.1,57.0,90,73,52,29.81,29.71,5,2,8,0.00
2013-1-9,86.9,76.6,70.3,70.3,66.3,63.6,89,72,48,29.88,29.76,11,3,11,0.00
2013-1-10,86.9,77.9,68.2,68.4,63.1,59.6,89,62,45,29.88,29.78,11,3,13,0.00
2013-1-11,88.3,74.5,65.7,67.8,62.3,57.9,87,68,45,29.86,29.73,14,3,14,0.00
2013-1-12,86.2,73.6,65.3,67.0,64.3,62.0,89,74,50,29.78,29.67,9,2,13,0.00
2013-1-13,88.9,73.8,65.1,66.7,63.4,61.2,89,71,44,29.76,29.65,8,2,8,0.00
2013-1-14,85.8,71.7,63.1,64.2,60.3,56.7,88,69,42,29.78,29.71,10,2,11,0.00
2013-1-15,87.8,70.8,61.2,66.0,61.0,56.8,89,73,47,29.75,29.65,6,2,8,0.00
2013-1-16,87.8,72.5,65.1,66.1,62.8,59.8,90,73,44,29.71,29.61,6,2,8,0.00
2013-1-17,82.8,66.2,59.4,72.4,59.1,47.4,93,78,60,29.75,29.61,14,4,25,0.00
2013-1-18,67.3,58.3,43.7,55.8,46.2,33.6,83,65,44,29.91,29.74,14,4,16,0.00
2013-1-19,76.6,65.2,54.1,60.3,55.6,49.4,87,72,56,29.85,29.71,11,3,13,0.01
2013-1-20,80.8,68.8,62.4,63.5,60.3,57.0,86,75,52,29.76,29.63,7,2,7,0.00
2013-1-21,82.9,67.5,62.6,64.1,57.3,50.4,78,70,52,29.70,29.62,11,2,11,0.00
2013-1-22,72.1,61.9,53.6,52.0,41.5,29.4,70,49,27,29.87,29.67,11,2,11,0.00
2013-1-23,74.3,59.2,47.7,48.9,40.1,31.1,77,53,23,29.96,29.85,10,2,10,0.00
2013-1-24,75.6,60.6,45.3,53.2,46.8,40.5,86,63,32,29.94,29.83,10,2,11,0.00
2013-1-25,81.7,62.8,50.9,58.6,51.7,46.7,93,71,33,29.91,29.79,7,1,7,0.00
2013-1-26,79.3,63.3,51.3,57.9,53.4,48.0,92,73,42,29.88,29.77,8,1,8,0.00
2013-1-27,83.3,67.8,54.3,63.2,53.3,47.3,95,64,36,29.89,29.80,10,2,11,0.00
2013-1-28,84.4,70.4,62.2,64.0,59.5,55.6,83,70,45,29.91,29.80,11,2,11,0.00
2013-1-29,86.4,72.0,61.3,67.3,62.5,56.8,92,74,46,29.83,29.69,13,3,14,0.00
2013-1-30,84.2,73.5,66.6,66.7,64.7,62.4,87,75,51,29.70,29.53,16,5,26,0.00
2013-1-31,70.9,61.3,48.4,66.5,47.4,32.8,92,63,38,29.85,29.54,14,4,20,0.06
2013-2-1,69.6,57.0,44.2,41.9,33.5,22.0,74,46,18,29.96,29.82,8,2,14,0.00
2013-2-2,77.9,60.5,46.4,50.8,43.4,31.0,82,57,20,29.89,29.75,8,2,10,0.00
2013-2-3,75.4,59.8,46.2,54.9,49.1,42.0,87,70,38,29.81,29.70,7,1,10,0.00
2013-2-4,76.5,58.1,45.9,52.7,44.7,33.2,92,66,23,29.74,29.65,8,1,11,0.00
2013-2-5,82.8,63.8,50.0,55.8,48.9,38.9,85,61,33,29.68,29.59,9,2,9,0.00
2013-2-6,83.7,67.6,56.7,62.8,57.9,52.2,88,73,42,29.70,29.62,8,2,8,0.00
2013-2-7,85.8,71.3,62.6,66.6,62.7,59.4,92,76,46,29.67,29.47,12,3,16,0.06
2013-2-8,80.2,69.7,61.5,66.4,62.1,56.3,94,78,54,29.69,29.49,11,3,13,0.00
2013-2-9,79.0,67.9,57.0,56.6,54.3,52.4,93,65,42,29.78,29.66,9,2,11,0.00
2013-2-10,84.0,71.5,62.4,62.2,58.7,54.5,81,66,43,29.83,29.73,11,4,12,0.00
2013-2-11,87.3,72.0,62.2,65.6,62.4,58.2,88,73,46,29.79,29.68,12,3,13,0.01
2013-2-12,86.4,74.2,66.4,69.2,67.2,64.0,93,80,54,29.70,29.56,13,3,18,0.00
2013-2-13,81.0,72.4,63.5,72.3,67.2,53.7,95,84,66,29.60,29.48,9,4,14,0.02
2013-2-14,72.0,63.8,60.6,60.9,57.6,54.1,95,81,58,29.63,29.52,11,2,14,0.31
2013-2-15,74.7,63.3,59.5,63.0,57.4,51.7,96,82,63,29.67,29.55,7,1,8,0.11
2013-2-16,72.5,60.6,52.5,54.6,48.9,39.0,90,67,45,29.71,29.54,25,4,25,0.02
2013-2-17,57.9,49.8,41.5,40.9,26.4,15.7,67,41,23,29.94,29.71,14,3,18,0.00
2013-2-18,71.4,56.6,37.8,47.1,36.9,24.1,76,51,21,29.94,29.79,11,3,11,0.00
2013-2-19,82.0,66.1,52.5,61.0,54.5,45.2,90,68,42,29.80,29.69,11,2,17,0.00
2013-2-20,83.7,68.1,59.7,67.1,61.5,57.6,95,81,54,29.72,29.61,5,1,7,0.00
2013-2-21,83.5,70.5,59.9,66.5,61.2,56.4,90,73,54,29.71,29.59,8,2,10,0.00
2013-2-22,89.4,73.4,63.3,69.0,65.6,60.7,95,78,49,29.67,29.60,11,3,14,0.01
2013-2-23,86.0,75.2,68.9,71.6,69.0,66.2,94,82,58,29.62,29.51,14,3,14,0.00
2013-2-24,86.7,73.8,68.0,71.6,68.4,66.5,95,84,56,29.59,29.50,8,2,8,0.00
2013-2-25,85.1,75.9,67.1,71.0,68.7,65.6,95,79,57,29.51,29.38,11,3,15,0.00
2013-2-26,81.1,72.9,68.4,72.0,68.0,63.6,92,85,71,29.51,29.32,11,3,17,0.67
2013-2-27,78.4,68.9,62.2,63.7,58.2,54.4,85,69,53,29.60,29.48,8,2,9,0.00
2013-2-28,78.8,67.9,59.7,57.1,53.6,47.4,80,61,43,29.61,29.53,9,3,11,0.00
2013-3-1,67.5,61.2,57.6,49.5,45.6,38.4,66,57,39,29.64,29.52,14,4,14,0.00
2013-3-2,65.8,56.9,50.0,46.2,41.9,39.2,73,58,48,29.67,29.59,14,4,17,0.01
2013-3-3,61.7,52.7,41.9,42.3,37.7,28.6,62,57,34,29.76,29.58,18,4,19,0.00
2013-3-4,68.0,55.2,41.9,43.4,39.3,32.5,81,57,30,29.83,29.72,11,2,12,0.00
2013-3-5,78.8,61.8,45.1,61.3,51.3,39.3,88,70,45,29.77,29.66,6,2,8,0.00
2013-3-6,67.3,62.0,55.8,63.5,49.7,40.7,92,65,44,29.74,29.58,17,5,17,0.26
2013-3-7,67.1,55.3,45.1,46.6,39.9,32.2,81,58,31,29.82,29.73,11,3,12,0.00
2013-3-8,77.5,59.2,45.3,51.6,45.1,37.1,89,64,25,29.83,29.73,7,2,10,0.00
2013-3-9,81.9,64.5,49.6,54.9,47.9,41.0,86,59,26,29.81,29.71,7,2,10,0.00
2013-3-10,81.7,67.9,58.1,57.9,53.2,48.9,77,61,35,29.75,29.64,14,3,15,0.00
2013-3-11,82.0,70.1,60.3,61.9,58.0,54.1,83,67,47,29.70,29.52,14,4,16,0.00
2013-3-12,71.1,66.3,59.9,67.0,59.7,50.8,94,80,67,29.65,29.47,11,4,14,0.13
2013-3-13,74.7,64.0,51.6,52.3,46.7,34.3,87,56,23,29.80,29.64,13,4,16,0.00
2013-3-14,69.1,61.1,53.1,51.4,41.1,25.0,72,51,20,29.86,29.76,13,4,15,0.00
2013-3-15,75.7,58.6,43.0,48.1,40.9,23.9,91,58,16,29.89,29.76,8,2,9,0.00
2013-3-16,80.6,61.4,46.8,58.5,50.3,42.0,90,69,36,29.80,29.68,11,2,11,0.00
2013-3-17,81.3,66.0,53.4,59.5,55.6,51.0,93,72,46,29.73,29.60,9,2,11,0.00
2013-3-18,80.1,68.8,61.7,67.5,62.5,56.7,94,81,59,29.64,29.47,16,3,16,0.01
2013-3-19,81.7,71.0,64.4,69.0,64.0,62.3,95,80,56,29.61,29.47,6,1,8,0.01
2013-3-20,75.6,67.0,59.9,64.1,61.2,56.9,95,83,56,29.59,29.42,11,2,14,0.33
2013-3-21,71.6,62.0,51.3,60.5,46.4,29.7,95,61,22,29.59,29.47,10,2,14,0.00
2013-3-22,78.8,63.1,46.6,68.2,53.4,40.7,93,72,41,29.59,29.48,8,2,11,0.15
2013-3-23,85.1,73.8,68.0,72.8,69.2,66.1,95,86,65,29.57,29.41,11,3,11,0.01
2013-3-24,80.6,73.4,70.5,72.0,69.8,67.8,94,89,74,29.44,29.28,9,4,17,0.43
2013-3-25,70.5,65.3,59.2,68.4,52.5,40.5,94,65,42,29.66,29.37,17,5,18,0.01
2013-3-26,63.7,57.0,50.5,47.7,39.6,32.4,64,52,42,29.85,29.64,20,5,21,0.00
2013-3-27,61.2,52.2,43.3,42.4,36.4,29.9,69,56,35,29.93,29.82,12,3,14,0.00
2013-3-28,73.2,56.5,42.3,45.8,39.3,27.5,87,57,20,29.89,29.79,8,2,11,0.00
2013-3-29,79.9,61.7,46.9,52.9,44.2,33.8,82,57,21,29.92,29.80,8,2,8,0.00
2013-3-30,80.8,64.6,52.0,56.5,51.8,45.3,85,66,36,29.85,29.74,8,2,11,0.00
2013-3-31,84.7,69.4,59.2,61.7,56.8,51.1,83,66,41,29.78,29.62,9,2,10,0.00
2013-4-1,84.2,71.4,66.2,69.1,64.5,61.6,92,80,56,29.65,29.58,6,2,7,0.00
2013-4-10,90.5,81.9,73.0,69.2,66.4,61.5,73,60,42,29.66,29.56,10,2,10,0.00
2013-4-11,90.0,79.6,71.6,72.2,69.0,62.1,91,71,50,29.59,29.42,17,4,17,0.00
2013-4-12,82.9,77.9,73.9,73.6,72.1,67.3,89,82,73,29.54,29.44,12,4,15,0.00
2013-4-13,86.5,76.8,70.0,72.0,67.7,65.4,90,74,56,29.59,29.47,5,1,8,0.00
2013-4-14,89.8,77.8,70.7,73.8,68.8,60.6,92,75,54,29.61,29.46,12,3,14,0.00
2013-4-15,91.8,78.3,69.3,70.3,65.4,59.4,82,65,47,29.68,29.55,4,1,6,0.00
2013-4-16,93.0,79.6,70.3,73.3,69.5,66.8,91,73,47,29.73,29.62,8,2,11,0.25
2013-4-17,90.7,79.1,69.1,70.5,65.2,58.7,89,65,35,29.73,29.60,8,3,10,0.01
2013-4-18,91.8,79.1,69.4,72.4,67.4,63.4,85,69,44,29.65,29.55,10,3,10,0.00
2013-4-19,90.1,79.7,72.1,73.2,71.2,68.5,90,76,55,29.62,29.54,12,4,17,0.00
2013-4-20,81.1,74.7,70.0,73.3,66.6,61.3,92,76,58,29.73,29.58,6,2,10,0.05
2013-4-21,87.8,74.4,62.1,69.9,64.4,58.2,88,72,46,29.72,29.59,10,3,10,0.01
2013-4-22,86.5,75.4,68.2,71.9,67.0,63.0,95,77,52,29.70,29.56,8,2,9,0.58
2013-4-23,89.1,76.4,67.5,66.8,62.8,58.5,87,65,41,29.70,29.59,9,3,11,0.00
2013-4-24,89.1,74.7,63.1,66.7,63.0,59.2,89,68,37,29.74,29.67,6,2,11,0.00
2013-4-25,89.8,76.7,66.0,69.7,65.1,61.9,87,69,43,29.81,29.69,8,2,8,0.00
2013-4-26,90.1,77.1,66.0,70.2,64.7,60.5,86,67,38,29.84,29.74,6,1,8,0.00
2013-4-27,89.1,76.4,68.5,67.9,64.1,62.2,89,68,43,29.82,29.73,8,2,11,0.00
2013-4-28,89.8,77.6,66.4,67.3,63.9,61.0,85,64,40,29.70,29.56,7,2,7,0.00
2013-4-29,88.2,78.3,68.4,71.2,65.7,60.5,85,66,49,29.62,29.50,11,3,11,0.00
2013-4-30,89.4,81.7,70.3,71.3,68.6,65.4,86,66,50,29.59,29.50,7,2,8,0.00
2013-5-1,75.9,70.9,66.2,71.9,67.7,65.1,96,89,80,29.58,29.50,7,2,10,1.16
2013-5-2,83.8,72.9,66.2,71.0,67.3,65.1,97,84,58,29.55,29.41,6,1,8,0.00
2013-5-3,85.5,75.5,67.3,71.0,67.5,65.0,93,77,60,29.43,29.32,10,2,10,0.00
2013-5-4,81.7,74.5,66.7,69.0,66.6,63.8,93,77,62,29.43,29.29,12,3,14,0.00
2013-5-5,78.3,71.7,67.1,67.2,57.0,50.3,92,62,39,29.56,29.40,12,4,15,0.05
2013-5-6,80.6,72.4,67.1,63.0,58.9,56.0,79,63,47,29.62,29.51,13,3,13,0.01
2013-5-7,82.0,71.6,62.6,59.6,57.8,55.8,80,63,44,29.67,29.58,8,2,10,0.00
2013-5-8,84.2,73.4,63.1,63.4,60.7,58.6,87,66,47,29.75,29.64,7,2,7,0.00
2013-5-9,89.6,74.8,63.3,65.7,62.6,56.7,88,68,34,29.76,29.67,7,1,8,0.00
2013-5-10,93.0,77.6,65.5,72.7,67.5,61.6,94,73,42,29.74,29.61,8,2,10,0.00
2013-5-11,91.2,80.2,73.0,75.5,73.1,70.6,94,80,55,29.67,29.59,8,2,9,0.00
2013-5-12,90.5,80.3,74.3,76.2,72.1,67.7,94,77,53,29.66,29.53,6,2,8,0.00
2013-5-13,85.5,76.6,68.7,69.9,62.5,49.8,83,64,41,29.74,29.61,9,2,14,0.00
2013-5-14,88.2,73.5,58.8,57.5,51.8,43.9,74,49,23,29.81,29.70,11,2,12,0.00
2013-5-15,90.1,75.2,63.3,63.4,57.8,48.1,75,57,24,29.80,29.68,8,2,8,0.00
2013-5-16,86.9,78.4,66.7,65.8,61.8,58.4,80,58,44,29.73,29.60,7,2,7,0.00
2013-5-17,90.9,80.0,68.5,67.5,65.2,61.2,81,62,44,29.70,29.62,7,2,8,0.00
2013-5-18,91.2,80.0,71.2,72.3,67.1,64.5,90,66,46,29.70,29.61,7,2,7,0.00
2013-5-19,91.8,79.9,69.6,71.4,67.7,65.3,88,68,44,29.69,29.58,5,1,8,0.00
2013-5-20,94.6,80.2,70.3,73.0,68.7,62.2,84,69,45,29.66,29.55,11,2,11,0.00
2013-5-21,90.9,78.0,69.3,70.6,67.7,65.1,92,72,48,29.62,29.51,7,2,11,0.00
2013-5-22,90.1,79.0,69.8,73.1,69.3,66.2,90,73,50,29.57,29.49,8,2,8,0.00
2013-5-23,90.3,80.9,72.1,73.2,70.8,67.6,92,72,52,29.62,29.51,8,2,8,0.00
2013-5-24,92.1,82.8,76.3,75.3,71.8,66.6,87,70,54,29.66,29.57,9,2,11,0.00
2013-5-25,96.3,83.5,72.7,69.7,65.2,58.5,85,57,33,29.97,29.64,9,3,14,0.00
2013-5-26,93.7,79.7,68.0,63.9,58.7,50.5,80,52,25,30.01,29.90,7,3,11,0.00
2013-5-27,94.8,80.3,68.0,67.8,62.9,58.5,81,58,35,29.98,29.84,12,3,12,0.00
2013-5-28,93.0,81.3,71.8,70.9,68.1,65.5,85,66,45,29.93,29.81,11,4,13,0.00
2013-5-29,91.8,80.4,71.8,72.5,68.6,65.9,90,69,45,29.89,29.81,13,4,15,0.07
2013-5-30,75.7,74.8,74.8,68.1,67.9,67.5,79,79,77,29.86,29.86,4,2,7,0.00
2013-5-31,74.8,74.8,74.8,67.9,67.9,67.9,79,79,79,29.86,29.86,2,2,7,0.00
2013-6-1,74.8,74.8,74.8,67.9,67.9,67.9,79,79,79,29.86,29.86,2,2,7,0.00
2013-6-2,74.8,74.8,74.8,67.9,67.9,67.9,79,79,79,29.86,29.86,2,2,7,0.00
2013-6-3,74.8,74.8,74.8,67.9,67.9,67.9,79,79,79,29.86,29.86,2,2,7,0.00
2013-6-18,81.5,70.4,64.4,68.6,63.9,62.3,95,81,56,29.79,29.67,4,1,4,0.01
2013-6-19,75.2,66.3,59.7,63.6,60.8,56.7,95,84,55,29.73,29.59,7,2,7,0.33
2013-6-20,70.5,61.3,48.7,60.1,43.9,30.8,95,57,23,29.76,29.65,8,2,8,0.00
2013-6-21,78.1,64.8,46.8,67.6,55.5,41.6,94,74,42,29.76,29.66,7,2,7,0.15
2013-6-22,84.6,74.0,68.0,72.5,69.4,66.2,95,86,66,29.70,29.57,8,3,8,0.01
2013-6-23,80.2,73.3,68.5,71.6,69.5,66.7,94,88,74,29.58,29.46,10,4,10,0.43
2013-6-24,94.3,83.4,63.9,75.2,70.3,48.8,94,67,46,29.94,29.55,8,2,8,0.50
2013-6-25,94.6,82.4,73.0,75.6,73.4,69.4,95,77,45,29.91,29.78,8,2,14,0.46
2013-6-26,92.1,81.2,74.7,76.8,73.3,68.9,96,78,58,29.84,29.77,8,2,12,0.00
2013-6-27,93.4,82.5,72.9,75.3,72.3,69.3,91,73,53,29.82,29.71,6,2,8,0.00
2013-6-28,92.8,84.0,77.0,78.0,74.9,71.9,93,75,54,29.75,29.62,7,2,8,0.12
2013-6-29,92.7,86.7,82.2,76.0,74.7,72.2,76,68,56,29.65,29.60,8,4,9,0.00
2013-6-30,88.7,88.7,88.7,75.5,75.5,75.5,65,65,65,29.60,29.60,7,7,7,0.00
2013-7-1,88.7,82.2,70.0,75.5,74.3,48.8,97,78,47,29.97,29.60,8,5,10,13.58
2013-7-2,92.1,79.6,73.8,76.1,72.6,69.2,97,81,50,30.07,29.94,11,3,12,0.86
2013-7-3,91.6,78.0,74.8,75.3,73.2,70.6,95,86,51,30.10,30.02,8,2,14,2.17
2013-7-4,90.7,79.8,73.4,75.9,73.4,71.0,95,82,55,30.12,30.03,11,2,13,0.07
2013-7-5,91.0,78.1,71.8,76.8,73.3,68.2,93,86,55,30.11,30.03,11,2,22,0.84
2013-7-6,93.4,80.7,73.9,77.3,73.6,69.8,96,81,49,30.09,29.99,10,2,11,0.00
2013-7-7,94.8,84.2,75.7,75.5,72.3,69.3,92,70,46,30.10,29.99,11,2,12,0.00
2013-7-8,94.3,82.3,74.3,77.3,72.9,68.7,92,75,44,30.13,30.05,7,2,14,1.31
2013-7-9,95.5,83.3,74.3,74.8,71.2,68.1,93,69,41,30.15,30.03,8,1,9,0.00
2013-7-10,90.5,80.4,74.7,77.6,72.8,69.6,93,79,52,30.08,29.96,5,1,8,0.40
2013-7-11,92.5,81.5,74.8,76.3,73.4,70.9,95,78,55,30.01,29.92,8,1,8,0.21
2013-7-12,89.2,82.0,76.6,75.2,73.1,69.6,88,75,57,29.95,29.89,4,1,8,0.00
2013-7-13,89.4,80.2,75.9,77.9,73.3,69.0,91,80,58,29.97,29.89,8,2,11,0.92
2013-7-14,89.1,79.5,74.3,77.1,72.8,68.3,93,81,59,30.06,29.93,8,3,10,0.08
2013-7-15,93.2,80.2,74.1,76.6,72.2,68.2,95,78,47,30.09,29.98,10,2,10,0.47
2013-7-16,91.9,78.5,74.3,76.0,72.2,66.8,95,82,50,30.12,30.04,14,2,14,0.07
2013-7-17,93.4,78.3,72.7,75.0,71.9,69.5,95,83,47,30.13,30.04,11,2,11,0.64
2013-7-18,86.7,78.1,72.0,74.6,72.0,69.5,95,82,63,30.09,30.02,8,2,10,0.00
2013-7-19,91.4,80.2,73.6,75.9,72.4,70.1,93,78,58,30.10,30.03,8,2,8,0.00
2013-7-20,91.8,81.7,73.9,78.0,73.1,70.1,92,76,59,30.09,29.99,7,2,8,0.00
2013-7-21,94.8,83.9,75.6,78.2,74.8,71.3,91,75,56,30.11,30.03,7,2,7,0.00
2013-7-22,95.0,84.7,78.3,77.8,75.7,74.3,89,75,55,30.12,30.05,6,2,7,0.00
2013-7-23,93.0,84.6,78.3,75.5,74.0,71.9,86,71,55,30.09,29.97,6,2,8,0.00
2013-7-24,93.0,85.3,81.1,74.6,73.1,71.7,77,67,52,30.00,29.91,8,3,8,0.00
2013-7-25,92.7,85.4,82.4,76.0,74.5,72.4,78,70,57,30.01,29.89,8,3,9,0.00
2013-7-27,93.2,88.3,81.9,75.0,73.3,70.9,74,62,50,29.98,29.91,7,2,7,0.00
2013-7-28,96.1,84.7,77.2,76.6,73.6,70.7,89,70,49,30.05,29.93,6,1,8,0.00
2013-7-29,95.9,83.1,76.1,75.1,72.8,67.6,87,72,46,30.13,30.01,8,1,13,0.02
2013-7-30,97.9,82.5,75.6,76.9,73.6,70.2,93,77,43,30.16,30.05,9,1,12,1.17
2013-7-31,95.0,83.2,76.3,78.9,74.5,68.8,95,77,45,30.12,29.99,6,1,8,0.00
2013-8-1,95.2,83.8,76.8,75.8,72.8,68.0,88,70,48,30.04,29.93,6,2,8,0.00
2013-8-2,94.5,84.4,76.8,77.1,73.6,70.5,87,71,54,30.03,29.92,6,1,7,0.00
2013-8-3,97.0,85.7,79.0,76.9,74.8,73.1,85,71,49,30.09,29.99,6,1,7,0.00
2013-8-4,94.6,84.7,78.6,80.5,76.1,74.0,92,76,56,30.08,29.99,7,1,7,0.27
2013-8-5,94.5,87.0,81.1,78.4,75.9,74.2,85,70,55,30.02,29.93,6,2,8,0.01
2013-8-6,90.5,83.5,74.8,81.4,76.6,73.0,95,80,67,29.98,29.87,4,1,11,2.76
2013-8-7,97.0,81.4,75.2,79.9,75.0,71.7,95,82,45,29.94,29.88,8,1,14,2.56
2013-8-8,93.6,79.6,75.9,77.3,75.0,70.6,95,87,51,30.00,29.90,12,1,13,0.51
2013-8-9,96.3,80.1,73.9,77.6,73.6,70.0,94,83,45,30.04,29.94,8,1,9,0.93
2013-8-10,94.5,82.9,73.6,76.5,73.8,71.5,94,76,50,30.10,30.00,9,2,10,0.00
2013-8-11,97.3,85.9,75.6,77.5,74.4,71.0,92,70,44,30.12,30.02,8,2,11,0.00
2013-8-12,95.5,85.7,77.0,77.7,75.2,71.7,91,72,48,30.11,29.99,5,1,7,0.00
2013-8-13,95.9,85.6,76.8,77.0,73.7,71.7,89,69,47,30.04,29.93,5,2,6,0.11
2013-8-14,94.8,84.6,78.6,80.4,75.1,70.6,92,75,51,30.00,29.91,6,1,8,0.02
2013-8-15,92.8,81.3,76.6,77.3,74.3,72.2,88,80,56,30.04,29.94,4,1,7,0.56
2013-8-16,80.2,79.2,78.6,75.7,75.0,74.1,89,87,85,30.02,29.98,0,0,2,0.00
2013-8-17,96.8,80.6,75.4,78.3,73.9,69.3,95,82,48,30.05,29.97,11,1,12,0.59
2013-8-18,94.8,80.4,73.8,79.4,74.6,71.0,95,84,51,30.10,29.98,12,1,13,0.91
2013-8-19,95.7,80.5,73.9,77.9,74.0,70.4,96,83,47,30.06,29.95,11,2,11,0.45
2013-8-20,95.5,80.4,73.9,76.5,73.5,70.0,96,82,47,30.06,29.97,8,1,11,0.46
2013-8-21,95.5,81.5,73.0,77.0,74.5,70.2,95,81,47,30.07,29.96,7,1,16,1.45
2013-8-22,94.8,81.3,73.9,79.4,74.8,72.0,96,83,52,30.05,29.94,4,1,9,0.39
2013-8-23,97.0,81.6,75.4,78.5,74.3,71.3,96,80,46,30.01,29.94,4,0,8,0.01
2013-8-24,95.5,81.4,74.5,79.5,74.3,71.8,94,80,49,30.09,29.98,3,0,9,1.11
2013-8-25,91.4,79.4,73.8,77.3,73.8,69.4,96,84,54,30.13,30.04,4,0,10,0.00
2013-8-26,95.9,81.7,73.8,76.3,73.1,69.2,94,77,47,30.13,29.98,5,0,11,0.05
2013-8-27,93.4,79.2,73.2,76.3,72.8,70.6,95,83,49,30.03,29.97,4,0,9,0.09
2013-8-28,94.8,78.0,72.0,74.6,72.3,68.1,95,85,47,30.04,29.96,5,0,11,1.26
2013-8-29,91.0,81.1,72.0,76.6,72.0,66.6,96,76,45,30.03,29.92,4,0,11,0.01
2013-8-30,88.7,80.9,77.0,81.4,74.0,71.8,91,80,64,30.00,29.89,2,0,5,0.51
2013-8-31,93.4,82.4,74.3,78.3,74.6,69.5,92,78,54,29.98,29.89,3,0,6,0.67
2013-9-1,79.5,78.2,77.4,74.5,73.9,73.2,90,87,84,29.95,29.91,2,0,4,0.00
2013-9-4,96.1,81.9,73.6,75.7,73.4,69.5,94,78,50,30.07,29.95,6,0,23,0.37
2013-9-5,97.0,81.0,73.8,78.2,73.8,70.0,94,81,47,30.08,29.98,7,0,14,0.59
2013-9-6,98.2,82.0,73.0,79.8,74.5,69.2,96,80,46,30.04,29.92,4,0,9,0.84
2013-9-7,95.0,80.7,72.9,76.3,72.4,69.2,96,78,49,30.01,29.89,7,1,12,0.00
2013-9-8,94.5,81.7,72.9,75.5,72.4,69.3,94,75,47,29.96,29.85,3,0,8,0.00
2013-9-9,95.2,84.4,75.7,75.4,71.7,67.0,91,68,45,30.01,29.91,4,1,8,0.00
2013-9-10,96.1,84.5,75.2,74.8,70.4,63.5,91,65,42,30.05,29.96,7,1,11,0.00
2013-9-11,94.8,82.0,74.1,74.5,71.3,68.0,88,72,47,30.04,29.96,6,1,15,0.15
2013-9-12,95.4,81.4,74.1,76.6,72.6,68.3,92,76,49,30.01,29.87,3,0,8,0.00
2013-9-13,94.3,83.4,72.9,74.0,72.1,70.1,92,71,49,29.89,29.80,2,0,5,0.00
2013-9-14,97.0,84.2,76.3,75.8,72.6,68.1,92,70,45,29.95,29.83,2,0,4,0.00
2013-9-15,96.8,81.4,74.5,75.8,72.3,69.4,93,76,45,30.07,29.94,5,1,10,0.05
2013-9-16,95.5,81.1,73.9,76.9,73.8,70.0,96,81,49,30.04,29.97,4,1,13,1.22
2013-9-17,93.2,78.6,73.0,78.2,73.0,70.2,96,85,53,30.03,29.92,3,0,8,0.59
2013-9-18,94.1,79.4,73.8,77.7,73.1,71.2,96,82,50,30.01,29.92,4,0,8,0.24
2013-9-19,91.0,78.3,73.8,77.2,73.9,72.0,96,88,55,30.03,29.94,2,0,7,0.70
2013-9-20,94.1,81.7,72.9,74.0,70.2,66.4,94,71,46,30.01,29.87,2,0,8,0.00
2013-9-21,95.4,81.2,72.1,73.3,69.8,67.3,86,70,44,29.93,29.77,3,1,8,0.00
2013-9-22,95.5,83.4,76.3,76.8,73.9,71.9,90,74,49,29.84,29.75,4,1,10,0.00
2013-9-23,82.0,78.5,75.6,78.1,75.4,73.9,96,90,82,29.96,29.82,3,0,10,4.24
2013-9-24,78.3,76.2,74.7,76.6,74.9,73.8,97,96,92,29.97,29.85,2,0,5,1.44
2013-9-25,81.0,76.4,71.4,76.8,73.1,69.8,97,90,80,29.94,29.79,4,0,17,1.61
2013-9-26,91.0,83.5,77.9,81.2,75.7,71.6,88,78,63,29.86,29.78,3,1,10,0.21
2013-9-27,88.3,79.1,71.8,72.4,69.6,66.5,91,74,52,29.94,29.84,4,1,11,0.00
2013-9-28,93.6,80.4,72.3,73.8,69.9,65.5,92,72,45,29.98,29.89,4,1,9,0.00
2013-9-29,93.9,80.8,71.8,71.3,68.3,63.2,89,68,44,29.98,29.87,2,0,6,0.00
2013-9-30,95.0,81.4,71.6,72.8,70.1,66.8,91,70,44,29.97,29.89,3,0,8,0.00
2013-10-1,97.3,83.0,72.9,74.6,69.7,65.3,91,66,44,30.03,29.93,4,1,10,0.00
2013-10-2,95.2,82.6,73.4,72.5,69.8,67.0,88,67,45,30.03,29.94,4,1,12,0.00
2013-10-3,94.5,81.6,74.5,74.8,71.2,69.1,85,72,48,30.05,29.95,4,1,8,0.00
2013-10-4,93.9,82.2,75.9,74.6,71.6,66.0,88,72,44,30.07,29.98,4,0,7,0.00
2013-10-5,95.9,82.1,73.8,73.6,70.8,66.5,86,70,44,30.04,29.92,3,0,7,0.00
2013-10-6,96.3,82.2,73.0,75.2,71.8,68.0,93,73,43,29.97,29.85,4,0,8,0.00
2013-10-7,87.6,80.4,74.5,78.0,73.8,70.9,92,81,69,29.87,29.76,5,1,11,0.69
2013-10-8,91.8,82.6,76.1,73.8,71.9,69.3,84,71,50,29.94,29.81,4,1,8,0.00
2013-10-9,79.7,75.7,70.9,71.1,68.9,65.7,89,80,68,30.02,29.92,4,0,6,0.00
2013-10-10,70.9,69.1,68.0,65.8,65.1,64.7,90,87,84,30.02,29.99,1,0,3,0.00
2013-10-11,93.0,78.9,68.7,69.1,66.3,63.8,92,68,41,30.03,29.93,2,0,3,0.00
2013-10-12,91.0,77.5,67.3,68.1,63.7,61.1,85,65,42,30.04,29.97,4,0,7,0.00
2013-10-13,91.2,76.8,66.6,70.0,63.3,59.7,86,65,43,30.07,29.96,2,0,4,0.00
2013-10-14,92.3,81.0,66.9,69.9,65.6,61.0,89,61,42,30.03,29.91,3,1,8,0.00
2013-10-15,88.0,76.5,68.4,71.0,67.8,64.7,92,76,51,29.99,29.89,4,1,8,0.00
2013-10-16,90.9,77.8,70.5,72.6,69.4,67.1,92,76,52,29.96,29.89,3,0,5,0.00
2013-10-17,95.9,79.4,70.5,72.2,69.0,66.2,89,73,40,29.97,29.89,3,0,5,0.00
2013-10-18,96.6,81.4,72.5,74.2,71.2,68.9,91,73,44,29.97,29.88,3,0,6,0.00
2013-10-19,95.5,80.9,74.7,75.7,73.0,70.7,93,78,48,29.94,29.85,4,0,9,0.02
2013-10-20,94.8,81.6,74.8,81.4,73.6,71.6,95,78,54,29.95,29.86,2,0,4,0.00
2013-10-21,94.8,81.1,74.8,79.0,72.6,70.4,94,77,51,29.99,29.91,2,0,5,0.00
2013-10-22,95.2,80.4,72.0,78.2,72.8,69.5,95,79,49,29.95,29.81,4,1,10,0.27
2013-10-23,82.8,75.7,70.2,74.3,65.1,51.1,96,72,44,29.99,29.80,5,1,11,0.24
2013-10-24,74.7,68.5,63.9,59.0,52.9,45.7,76,58,47,30.15,29.98,4,1,8,0.00
2013-10-25,84.6,70.3,60.1,61.8,55.6,48.9,87,63,33,30.21,30.11,4,0,8,0.00
2013-10-26,88.2,71.3,61.0,61.9,57.7,52.0,85,65,35,30.19,30.08,4,0,8,0.00
2013-10-27,85.5,70.6,58.5,63.0,56.0,52.4,89,63,37,30.11,30.02,2,0,6,0.00
2013-10-28,91.4,73.0,61.2,64.3,59.1,56.1,85,65,34,30.17,30.07,3,0,6,0.00
2013-10-29,90.0,76.2,64.8,64.8,61.8,56.9,87,64,42,30.20,30.09,4,1,7,0.00
2013-10-30,92.5,77.6,67.1,70.4,64.7,62.6,91,67,42,30.20,30.06,3,1,7,0.00
2013-10-31,91.6,83.2,66.9,69.4,65.3,62.6,91,57,43,30.11,30.01,4,1,9,0.00
2013-11-1,89.4,80.9,71.8,74.3,72.6,68.6,91,76,59,29.99,29.88,5,1,9,0.00
2013-11-2,80.8,74.3,66.9,74.4,68.8,62.7,92,83,64,29.96,29.82,7,1,14,0.18
2013-11-3,82.8,70.3,62.8,63.0,51.4,40.4,85,55,28,30.08,29.95,4,1,12,0.00
2013-11-4,82.8,70.5,59.5,61.3,57.1,49.8,83,64,44,30.12,30.04,4,1,12,0.00
2013-11-5,86.9,75.9,66.7,69.2,65.7,61.3,88,72,54,30.10,30.01,4,2,10,0.00
2013-11-6,91.2,77.7,70.0,69.7,66.4,64.2,87,70,44,30.08,29.99,3,1,8,0.00
2013-11-7,86.9,74.1,67.8,71.6,67.0,64.7,93,79,55,30.04,29.96,3,0,7,0.00
2013-11-8,83.1,73.7,67.1,67.5,64.2,60.4,93,74,53,30.09,29.99,3,1,8,0.00
2013-11-9,86.5,75.3,66.2,67.5,63.7,60.2,82,68,50,30.13,30.05,4,1,10,0.00
2013-11-10,91.8,76.2,67.6,69.5,64.3,62.0,88,68,45,30.15,30.04,2,0,7,0.00
2013-11-11,86.2,75.6,68.7,68.7,65.2,62.9,88,71,52,30.14,30.04,2,0,8,0.00
2013-11-12,86.0,73.5,66.7,69.1,66.2,61.0,93,79,51,30.10,29.99,4,0,8,0.00
2013-11-13,72.7,64.7,55.9,60.4,51.4,47.5,75,62,51,30.26,30.05,4,2,13,0.00
2013-11-14,81.7,67.3,54.5,56.6,52.7,48.1,82,62,38,30.25,30.14,4,1,11,0.00
2013-11-15,80.6,70.5,63.7,65.0,61.3,56.9,83,73,52,30.14,30.01,4,1,9,0.00
2013-11-16,79.3,73.7,69.6,72.5,65.9,62.0,95,77,56,30.10,30.00,4,1,8,0.25
2013-11-17,90.7,77.0,70.7,71.7,67.4,62.5,87,74,44,30.06,29.98,4,1,15,0.00
2013-11-18,91.8,77.4,70.7,73.4,70.0,67.8,95,80,51,30.02,29.93,3,0,5,0.00
2013-11-19,73.9,73.4,72.9,72.5,71.4,70.8,95,94,93,29.93,29.89,0,0,0,0.00
2013-11-20,84.2,74.0,68.2,71.3,67.3,62.6,89,80,64,30.07,29.94,4,0,6,0.00
2013-11-21,89.1,77.1,71.2,72.9,69.5,66.8,92,79,56,30.15,30.05,3,1,7,0.00
2013-11-22,90.0,77.6,70.9,71.5,67.6,63.7,91,72,52,30.16,30.06,3,1,6,0.04
2013-11-23,89.6,74.5,64.9,68.6,64.9,62.5,95,74,45,30.11,29.99,2,0,4,0.00
2013-11-24,80.8,69.2,61.2,65.9,59.4,53.0,91,71,60,30.19,30.02,4,2,11,0.00
2013-11-25,80.2,70.8,62.1,63.6,58.1,54.4,83,65,46,30.19,30.03,7,2,14,0.00
2013-11-26,84.7,75.2,68.7,73.8,69.3,63.4,94,82,63,30.02,29.77,8,3,17,0.02
2013-11-27,76.1,66.9,52.5,72.4,57.4,42.8,96,72,50,30.18,29.75,8,2,17,0.04
2013-11-28,65.7,54.3,40.6,50.2,41.5,31.4,82,63,45,30.32,30.18,4,1,11,0.00
2013-11-29,76.3,63.2,52.7,56.2,52.6,48.6,89,70,48,30.32,30.22,4,1,9,0.00
2013-11-30,79.5,66.0,55.6,64.2,58.3,50.6,92,77,55,30.28,30.15,3,1,8,0.00
2013-12-1,75.7,65.1,60.6,65.4,61.4,57.9,95,88,67,30.17,29.97,3,0,8,0.00
2013-12-2,69.8,65.0,60.3,64.2,60.8,58.0,97,87,72,29.97,29.84,2,0,4,0.00
2013-12-3,84.4,70.8,62.4,67.5,63.3,58.0,88,78,49,29.97,29.88,5,1,9,0.00
2013-12-4,88.9,74.1,65.8,69.2,65.9,64.4,96,77,49,30.06,29.94,4,1,8,0.00
2013-12-5,88.2,73.9,66.0,69.4,65.5,62.2,92,77,44,30.15,30.06,4,1,9,0.00
2013-12-6,87.8,74.8,66.6,73.8,68.1,64.5,95,81,57,30.17,30.07,6,1,14,0.00
2013-12-7,90.1,74.7,66.7,71.1,66.7,64.2,95,78,46,30.22,30.12,3,0,7,0.00
2013-12-8,89.2,74.6,66.2,72.7,66.3,62.8,95,77,47,30.20,30.08,4,1,11,0.00
2013-12-9,87.8,74.4,66.7,71.8,67.7,64.4,94,81,54,30.17,30.08,4,1,10,0.00
2013-12-10,89.4,73.8,63.0,71.2,67.5,60.9,95,82,54,30.16,30.08,3,0,8,0.00
2013-12-11,85.3,73.8,66.6,68.3,66.1,62.6,95,79,49,30.22,30.13,3,1,8,0.00
2013-12-12,73.2,67.0,55.4,65.0,53.5,34.1,96,65,33,30.28,30.16,4,1,8,0.00
2013-12-13,80.2,68.1,52.9,58.1,51.7,33.5,78,57,44,30.25,30.08,4,1,9,0.00
2013-12-14,86.0,73.8,64.6,71.2,66.5,58.1,91,79,55,30.08,29.95,6,2,14,0.00
2013-12-15,73.9,73.6,73.2,73.1,72.1,71.0,97,95,91,29.95,29.90,4,1,8,0.00
2013-12-16,69.3,60.4,51.8,57.2,47.9,42.9,85,64,50,30.20,30.09,4,1,8,0.00
2013-12-17,75.9,60.0,47.7,56.2,48.8,41.3,86,68,43,30.23,30.13,4,1,8,0.00
2013-12-18,73.9,60.3,46.8,52.2,44.5,36.5,89,61,27,30.27,30.18,4,0,8,0.00
2013-12-19,82.4,64.6,49.8,59.0,50.9,43.6,86,64,39,30.25,30.13,3,1,8,0.00
2013-12-20,86.0,73.2,61.2,67.4,62.0,54.6,83,69,47,30.16,30.06,4,1,11,0.00
2013-12-21,88.5,76.2,68.0,70.2,67.5,64.0,91,76,51,30.11,30.00,9,2,18,0.00
2013-12-22,87.8,76.2,69.6,72.6,69.1,66.5,95,80,55,30.11,30.03,7,2,15,0.02
2013-12-23,88.2,76.1,69.4,73.9,70.6,67.7,95,84,60,30.15,30.08,7,1,13,0.01
2013-12-24,74.5,67.1,54.1,72.4,54.1,31.9,94,66,32,30.23,30.10,6,2,14,0.00
2013-12-25,79.5,64.6,51.1,60.0,50.6,36.7,72,61,45,30.22,30.09,4,1,11,0.00
2013-12-26,81.1,70.7,62.8,63.3,59.1,54.5,81,68,52,30.18,30.06,2,0,6,0.00
2013-12-27,80.8,70.5,63.5,66.4,62.4,58.3,88,76,59,30.22,30.09,4,1,14,0.00
2013-12-28,82.2,73.5,65.8,69.5,66.6,62.8,92,80,61,30.18,29.97,6,1,12,0.00
2013-12-29,79.2,71.9,66.2,75.7,68.1,62.1,94,88,78,30.00,29.89,6,2,12,0.06
2013-12-30,73.0,65.6,62.4,62.6,59.8,58.1,94,82,65,30.18,29.99,4,0,9,0.01
2013-12-31,69.1,64.7,60.8,58.7,52.9,49.6,86,66,52,30.27,30.13,3,1,7,0.00
2014-1-1,73.2,66.3,59.9,64.9,60.1,52.1,92,81,65,30.21,30.03,3,1,8,0.01
2014-1-2,66.2,65.8,65.7,64.7,64.6,63.8,96,96,92,30.03,29.95,2,2,7,0.00